Tracking 30009 objects as of 7-Dec-2024
HD Live streaming from Space Station
objects crossing your sky now

GAOFEN 5 01A

Track GAOFEN 5 01A now!
10-day predictions


NORAD ID: 54640
Int'l Code: 2022-165A
Perigee: 706.8 km
Apogee: 708.6 km
Inclination: 98.2 °
Period: 98.8 minutes
Semi major axis: 7078 km
RCS: Unknown
Launch date: December 8, 2022
Source: People's Republic of China (PRC)
Launch site: Taiyaun Space Center, China (TSC)
Your satellite tracking list
Your tracking list is empty




NASA's NSSDC Master Catalog

Two Line Element Set (TLE):
1 54640U 22165A   24342.09495646  .00001587  00000-0  35756-3 0  9993
2 54640  98.1869 275.8184 0001271 110.6570 249.4765 14.57716294106266
Source of the keplerian elements: AFSPC